{"data":{"norad_id":54761,"intl_designator":"2022-175D","name":"STARLINK-5202","alt_names":[],"object_type":"PAYLOAD","status":"ACTIVE","operator":null,"country":"US","launch_date":"2022-12-17","launch_site_code":"AFETR","launch_vehicle":null,"mission":null,"orbit_class":"UNKNOWN","rcs_meters":null,"size_class":null,"mass_kg":null,"dimensions":null,"purposes":["comms"],"wikipedia_slug":null,"has_3d_model":false,"image_url":null,"decayed_at":null,"tle_current":{"epoch":"2026-05-25T01:12:35.743680Z","epoch_age_seconds":81285,"freshness":"FRESH","line1":"1 54761U 22175D   26145.05041370 -.00001272  00000+0 -61822-4 0  9994","line2":"2 54761  53.2139  61.5507 0001720  88.2838 271.8351 15.08843805191447","mean_motion":15.08843805,"eccentricity":0.000172,"inclination_deg":53.2139,"raan_deg":61.5507,"arg_perigee_deg":88.2838,"mean_anomaly_deg":271.8351,"bstar":-6.1822e-5,"rev_number":19144,"period_min":95.437314003486,"perigee_km":538.54188519927,"apogee_km":540.92163205224,"semimajor_km":6917.8687586258,"source":"CELESTRAK","updated_at":"2026-05-25T13:38:17.688490Z"}}}